• In Hungary
  • List of Countries
  • For 7 days
  • Water Temperature
  • Satellite Maps
  • Weather Map
  • News
  • Weather Widgets
  • user-avatar
    Login

    Hourly Weather Perekallya

    Today, 18 January, Thursday

    Time Temperature Precipitation Wind Pressure Humidity
    00:00 -5°C° 0 mm 3 mps 734 mmHg 90%
    01:00 -4°C° 0 mm 2 mps 734 mmHg 91%
    02:00 -5°C° 0 mm 2 mps 735 mmHg 92%
    03:00 -5°C° 0 mm 2 mps 735 mmHg 92%
    04:00 -5°C° 0 mm 2 mps 736 mmHg 93%
    05:00 -5°C° 0 mm 2 mps 736 mmHg 93%
    06:00 -5°C° 0 mm 2 mps 737 mmHg 93%
    07:00 -6°C° 0 mm 2 mps 737 mmHg 94%
    08:00 -6°C° 0 mm 2 mps 737 mmHg 94%
    09:00 -5°C° 0 mm 2 mps 738 mmHg 92%
    10:00 -5°C° 0 mm 3 mps 738 mmHg 91%
    11:00 -4°C° 0 mm 3 mps 739 mmHg 89%
    12:00 -4°C° 0 mm 3 mps 739 mmHg 88%
    13:00 -2°C° 0 mm 3 mps 739 mmHg 87%
    14:00 -2°C° 0 mm 3 mps 740 mmHg 85%
    15:00 -2°C° 0 mm 2 mps 740 mmHg 86%
    16:00 -2°C° 0 mm 2 mps 740 mmHg 87%
    17:00 -3°C° 0 mm 2 mps 740 mmHg 88%
    18:00 -3°C° 0 mm 2 mps 739 mmHg 87%
    19:00 -4°C° 0 mm 3 mps 739 mmHg 87%
    20:00 -4°C° 0 mm 3 mps 739 mmHg 87%
    21:00 -4°C° 0 mm 4 mps 738 mmHg 85%
    22:00 -5°C° 0 mm 5 mps 737 mmHg 83%
    23:00 -5°C° 0 mm 6 mps 736 mmHg 81%

    Tomorrow, 19 January, Friday

    Time Temperature Precipitation Wind Pressure Humidity
    00:00 -5°C° 0.9 mm 6 mps 735 mmHg 84%
    01:00 -6°C° 0.9 mm 7 mps 734 mmHg 87%
    02:00 -5°C° 0.9 mm 8 mps 733 mmHg 89%
    03:00 -5°C° 0.5 mm 8 mps 733 mmHg 86%
    04:00 -3°C° 0.5 mm 7 mps 732 mmHg 83%
    05:00 -3°C° 0.5 mm 7 mps 731 mmHg 80%
    06:00 -2°C° 0.4 mm 7 mps 731 mmHg 80%
    07:00 -2°C° 0.4 mm 7 mps 731 mmHg 80%
    08:00 -2°C° 0.4 mm 7 mps 731 mmHg 80%
    09:00 -2°C° 0.4 mm 7 mps 731 mmHg 81%
    10:00 -2°C° 0.4 mm 7 mps 731 mmHg 82%
    11:00 -2°C° 0.4 mm 7 mps 731 mmHg 82%
    12:00 -2°C° 0.2 mm 8 mps 731 mmHg 82%
    13:00 -2°C° 0.2 mm 8 mps 732 mmHg 82%
    14:00 -2°C° 0.2 mm 8 mps 732 mmHg 82%
    15:00 -2°C° 0.3 mm 8 mps 733 mmHg 82%
    16:00 -4°C° 0.3 mm 8 mps 734 mmHg 83%
    17:00 -4°C° 0.3 mm 9 mps 735 mmHg 83%
    18:00 -4°C° 0.1 mm 8 mps 736 mmHg 83%
    19:00 -3°C° 0.1 mm 7 mps 737 mmHg 83%
    20:00 -4°C° 0.1 mm 6 mps 738 mmHg 83%
    21:00 -4°C° 0 mm 6 mps 739 mmHg 84%
    22:00 -4°C° 0 mm 5 mps 740 mmHg 86%
    23:00 -4°C° 0 mm 5 mps 740 mmHg 87%

    Day after tomorrow, 20 January, Saturday

    Time Temperature Precipitation Wind Pressure Humidity
    00:00 -5°C° 0 mm 5 mps 741 mmHg 88%
    01:00 -5°C° 0 mm 5 mps 741 mmHg 89%
    02:00 -4°C° 0 mm 4 mps 742 mmHg 90%
    03:00 -5°C° 0 mm 4 mps 742 mmHg 91%
    04:00 -5°C° 0 mm 3 mps 742 mmHg 93%
    05:00 -6°C° 0 mm 3 mps 742 mmHg 94%
    06:00 -7°C° 0 mm 3 mps 743 mmHg 94%
    07:00 -6°C° 0 mm 2 mps 743 mmHg 95%
    08:00 -6°C° 0 mm 2 mps 743 mmHg 95%
    09:00 -5°C° 0 mm 2 mps 744 mmHg 94%
    10:00 -4°C° 0 mm 2 mps 744 mmHg 93%
    11:00 -4°C° 0 mm 2 mps 744 mmHg 92%
    12:00 -3°C° 0 mm 2 mps 744 mmHg 91%
    13:00 -2°C° 0 mm 2 mps 744 mmHg 90%
    14:00 -2°C° 0 mm 2 mps 744 mmHg 89%
    15:00 -2°C° 0 mm 2 mps 743 mmHg 91%
    16:00 -3°C° 0 mm 2 mps 743 mmHg 92%
    17:00 -4°C° 0 mm 2 mps 743 mmHg 94%
    18:00 -4°C° 0 mm 2 mps 743 mmHg 94%
    19:00 -4°C° 0 mm 2 mps 743 mmHg 94%
    20:00 -4°C° 0 mm 2 mps 743 mmHg 94%
    21:00 -4°C° 0.2 mm 3 mps 743 mmHg 94%
    22:00 -4°C° 0.2 mm 3 mps 743 mmHg 94%
    23:00 -4°C° 0.2 mm 3 mps 742 mmHg 94%

    21 January, Sunday

    Time Temperature Precipitation Wind Pressure Humidity
    00:00 -4°C° 0.2 mm 3 mps 742 mmHg 94%
    01:00 -4°C° 0.2 mm 3 mps 742 mmHg 93%
    02:00 -4°C° 0.2 mm 3 mps 742 mmHg 93%
    03:00 -4°C° 0 mm 3 mps 742 mmHg 93%
    04:00 -5°C° 0 mm 3 mps 742 mmHg 93%
    05:00 -5°C° 0 mm 3 mps 742 mmHg 94%
    06:00 -5°C° 0 mm 3 mps 742 mmHg 94%
    07:00 -5°C° 0 mm 3 mps 742 mmHg 94%
    08:00 -5°C° 0 mm 3 mps 743 mmHg 94%
    09:00 -5°C° 0 mm 3 mps 743 mmHg 92%
    10:00 -4°C° 0 mm 4 mps 743 mmHg 91%
    11:00 -3°C° 0 mm 4 mps 744 mmHg 89%
    12:00 -3°C° 0 mm 4 mps 744 mmHg 88%
    13:00 -2°C° 0 mm 4 mps 744 mmHg 86%
    14:00 -2°C° 0 mm 4 mps 744 mmHg 85%
    15:00 -2°C° 0 mm 4 mps 745 mmHg 86%
    16:00 -2°C° 0 mm 3 mps 745 mmHg 88%
    17:00 -2°C° 0 mm 3 mps 745 mmHg 89%
    18:00 -4°C° 0 mm 3 mps 746 mmHg 90%
    19:00 -4°C° 0 mm 4 mps 746 mmHg 91%
    20:00 -4°C° 0 mm 4 mps 746 mmHg 92%
    21:00 -4°C° 0 mm 4 mps 747 mmHg 92%
    22:00 -5°C° 0 mm 4 mps 747 mmHg 92%
    23:00 -5°C° 0 mm 4 mps 747 mmHg 92%

    22 January, Monday

    Time Temperature Precipitation Wind Pressure Humidity
    00:00 -5°C° 0 mm 4 mps 748 mmHg 92%
    01:00 -7°C° 0 mm 4 mps 748 mmHg 92%
    02:00 -6°C° 0 mm 3 mps 748 mmHg 93%
    03:00 -7°C° 0 mm 3 mps 749 mmHg 93%
    04:00 -7°C° 0 mm 3 mps 749 mmHg 92%
    05:00 -7°C° 0 mm 3 mps 749 mmHg 92%
    06:00 -7°C° 0 mm 3 mps 750 mmHg 92%
    07:00 -7°C° 0 mm 3 mps 751 mmHg 91%
    08:00 -6°C° 0 mm 3 mps 751 mmHg 90%
    09:00 -6°C° 0 mm 3 mps 752 mmHg 89%
    10:00 -6°C° 0 mm 3 mps 752 mmHg 87%
    11:00 -5°C° 0 mm 3 mps 753 mmHg 85%
    12:00 -5°C° 0 mm 3 mps 753 mmHg 84%
    13:00 -5°C° 0 mm 3 mps 753 mmHg 83%
    14:00 -5°C° 0 mm 3 mps 754 mmHg 82%
    15:00 -4°C° 0 mm 2 mps 754 mmHg 84%
    16:00 -4°C° 0 mm 2 mps 755 mmHg 85%
    17:00 -5°C° 0 mm 2 mps 755 mmHg 86%
    18:00 -3°C° 0 mm 1 mps 756 mmHg 87%
    19:00 -3°C° 0 mm 1 mps 756 mmHg 88%
    20:00 -3°C° 0 mm 1 mps 756 mmHg 88%
    21:00 -3°C° 0 mm 1 mps 757 mmHg 88%
    22:00 -3°C° 0 mm 1 mps 757 mmHg 88%
    23:00 -5°C° 0 mm 0 mps 757 mmHg 87%

    23 January, Tuesday

    Time Temperature Precipitation Wind Pressure Humidity
    00:00 -5°C° 0 mm 0 mps 757 mmHg 87%
    01:00 -5°C° 0 mm 0 mps 757 mmHg 87%
    02:00 -4°C° 0 mm 1 mps 757 mmHg 87%
    03:00 -6°C° 0 mm 1 mps 757 mmHg 87%
    04:00 -6°C° 0 mm 1 mps 757 mmHg 88%
    05:00 -7°C° 0 mm 1 mps 757 mmHg 88%
    06:00 -7°C° 0 mm 1 mps 757 mmHg 89%
    07:00 -8°C° 0 mm 2 mps 757 mmHg 89%
    08:00 -9°C° 0 mm 2 mps 757 mmHg 90%
    09:00 -8°C° 0 mm 2 mps 757 mmHg 88%
    10:00 -8°C° 0 mm 3 mps 757 mmHg 86%
    11:00 -7°C° 0 mm 3 mps 757 mmHg 85%
    12:00 -6°C° 0 mm 3 mps 757 mmHg 84%
    13:00 -7°C° 0 mm 4 mps 756 mmHg 83%
    14:00 -5°C° 0 mm 4 mps 756 mmHg 82%
    15:00 -7°C° 0 mm 4 mps 755 mmHg 83%
    16:00 -7°C° 0 mm 4 mps 755 mmHg 84%
    17:00 -7°C° 0 mm 4 mps 755 mmHg 85%
    18:00 -7°C° 0 mm 4 mps 754 mmHg 85%
    19:00 -7°C° 0 mm 4 mps 754 mmHg 85%
    20:00 -7°C° 0 mm 4 mps 754 mmHg 85%
    21:00 -6°C° 0.2 mm 5 mps 754 mmHg 87%
    22:00 -6°C° 0.2 mm 5 mps 753 mmHg 88%
    23:00 -6°C° 0.2 mm 5 mps 753 mmHg 90%
    Show more